Time,TemperatureF,DewpointF,PressureIn,WindDirection,WindDirectionDegrees,WindSpeedMPH,WindSpeedGustMPH,Humidity,HourlyPrecipIn,Conditions,Clouds,dailyrainin,SolarRadiationWatts/m^2,SoftwareType,DateUTC
2013-05-02 00:01:00,75.0,7.0,-100.00,North,356,6.0,13.0,7,-99.99,,,0.00,1.000000,,2013-05-02 07:01:00,
2013-05-02 00:52:00,75.0,7.0,-100.00,North,3,0.0,10.0,7,-99.99,,,0.00,1.000000,,2013-05-02 07:52:00,
2013-05-02 01:02:00,75.0,7.0,-100.00,North,3,0.0,10.0,7,-99.99,,,0.00,1.000000,,2013-05-02 08:02:00,
2013-05-02 01:52:00,73.0,5.0,-100.00,East,89,0.0,0.0,7,-99.99,,,0.00,1.000000,,2013-05-02 08:52:00,
2013-05-02 02:02:00,73.0,5.0,-100.00,East,89,0.0,0.0,7,-99.99,,,0.00,1.000000,,2013-05-02 09:02:00,
2013-05-02 02:11:00,73.0,5.0,-100.00,East,89,0.0,0.0,7,-99.99,,,0.00,1.000000,,2013-05-02 09:11:00,
2013-05-02 02:21:00,73.0,5.0,-100.00,East,89,0.0,0.0,7,-99.99,,,0.00,1.000000,,2013-05-02 09:21:00,
2013-05-02 02:52:00,72.0,5.0,-100.00,East,88,0.0,14.0,7,0.00,,,0.00,1.000000,,2013-05-02 09:52:00,
2013-05-02 03:02:00,72.0,5.0,-100.00,East,88,0.0,14.0,7,0.00,,,0.00,1.000000,,2013-05-02 10:02:00,
2013-05-02 03:12:00,72.0,5.0,-100.00,East,88,0.0,14.0,7,0.00,,,0.00,1.000000,,2013-05-02 10:12:00,
2013-05-02 03:22:00,72.0,5.0,-100.00,East,88,0.0,14.0,7,0.00,,,0.00,1.000000,,2013-05-02 10:22:00,
2013-05-02 03:53:00,71.0,9.0,-100.00,East,84,0.0,0.0,9,-99.99,,,0.00,1.000000,,2013-05-02 10:53:00,
2013-05-02 04:02:00,71.0,9.0,-100.00,East,84,0.0,0.0,9,-99.99,,,0.00,1.000000,,2013-05-02 11:02:00,
2013-05-02 04:11:00,71.0,9.0,-100.00,East,84,0.0,0.0,9,-99.99,,,0.00,1.000000,,2013-05-02 11:11:00,
2013-05-02 04:21:00,71.0,9.0,-100.00,East,84,0.0,0.0,9,-99.99,,,0.00,1.000000,,2013-05-02 11:21:00,
2013-05-02 04:31:00,71.0,9.0,-100.00,East,84,0.0,0.0,9,-99.99,,,0.00,1.000000,,2013-05-02 11:31:00,
2013-05-02 04:52:00,70.0,6.0,-100.00,East,87,4.0,15.0,8,0.00,,,0.00,1.000000,,2013-05-02 11:52:00,
2013-05-02 05:01:00,70.0,6.0,-100.00,East,87,4.0,15.0,8,0.00,,,0.00,1.000000,,2013-05-02 12:01:00,
2013-05-02 05:11:00,70.0,6.0,-100.00,East,87,4.0,15.0,8,0.00,,,0.00,1.000000,,2013-05-02 12:11:00,
2013-05-02 05:21:00,70.0,6.0,-100.00,East,87,4.0,15.0,8,0.00,,,0.00,1.000000,,2013-05-02 12:21:00,
2013-05-02 05:52:00,68.0,12.0,-100.00,SSE,152,7.0,16.0,11,0.00,,,0.00,1.000000,,2013-05-02 12:52:00,
2013-05-02 06:01:00,68.0,12.0,-100.00,SSE,152,7.0,16.0,11,0.00,,,0.00,1.000000,,2013-05-02 13:01:00,
2013-05-02 06:11:00,68.0,12.0,-100.00,SSE,152,7.0,16.0,11,0.00,,,0.00,1.000000,,2013-05-02 13:11:00,
2013-05-02 06:21:00,68.0,12.0,-100.00,SSE,152,7.0,16.0,11,0.00,,,0.00,1.000000,,2013-05-02 13:21:00,
2013-05-02 06:31:00,68.0,12.0,-100.00,SSE,152,7.0,16.0,11,0.00,,,0.00,1.000000,,2013-05-02 13:31:00,
2013-05-02 06:52:00,66.0,14.0,-100.00,ESE,118,5.0,13.0,13,0.00,,,0.00,4.000000,,2013-05-02 13:52:00,
2013-05-02 07:02:00,66.0,14.0,-100.00,ESE,118,5.0,13.0,13,0.00,,,0.00,4.000000,,2013-05-02 14:02:00,
2013-05-02 07:11:00,66.0,14.0,-100.00,ESE,118,5.0,13.0,13,0.00,,,0.00,4.000000,,2013-05-02 14:11:00,
2013-05-02 07:21:00,66.0,14.0,-100.00,ESE,118,5.0,13.0,13,0.00,,,0.00,4.000000,,2013-05-02 14:21:00,
2013-05-02 07:31:00,66.0,14.0,-100.00,ESE,118,5.0,13.0,13,0.00,,,0.00,4.000000,,2013-05-02 14:31:00,
2013-05-02 07:52:00,69.0,16.0,-100.00,SSE,155,4.0,13.0,13,0.00,,,0.00,90.000000,,2013-05-02 14:52:00,
2013-05-02 08:02:00,69.0,16.0,-100.00,SSE,155,4.0,13.0,13,0.00,,,0.00,90.000000,,2013-05-02 15:02:00,
2013-05-02 08:12:00,69.0,16.0,-100.00,SSE,155,4.0,13.0,13,0.00,,,0.00,90.000000,,2013-05-02 15:12:00,
2013-05-02 08:21:00,69.0,16.0,-100.00,SSE,155,4.0,13.0,13,0.00,,,0.00,90.000000,,2013-05-02 15:21:00,
2013-05-02 08:32:00,69.0,16.0,-100.00,SSE,155,4.0,13.0,13,0.00,,,0.00,90.000000,,2013-05-02 15:32:00,
2013-05-02 09:02:00,71.0,14.0,-100.00,SSE,165,8.0,14.0,11,0.00,,,0.00,281.000000,,2013-05-02 16:02:00,
2013-05-02 09:13:00,71.0,14.0,-100.00,SSE,165,8.0,14.0,11,0.00,,,0.00,281.000000,,2013-05-02 16:13:00,
2013-05-02 09:22:00,71.0,14.0,-100.00,SSE,165,8.0,14.0,11,0.00,,,0.00,281.000000,,2013-05-02 16:22:00,
2013-05-02 09:32:00,71.0,14.0,-100.00,SSE,165,8.0,14.0,11,0.00,,,0.00,281.000000,,2013-05-02 16:32:00,
2013-05-02 09:52:00,73.0,11.0,-100.00,SE,145,9.0,15.0,9,0.00,,,0.00,481.000000,,2013-05-02 16:52:00,
2013-05-02 10:02:00,73.0,11.0,-100.00,SE,145,9.0,15.0,9,0.00,,,0.00,481.000000,,2013-05-02 17:02:00,
2013-05-02 10:52:00,75.0,15.0,-100.00,SSE,147,8.0,15.0,10,0.00,,,0.00,665.000000,,2013-05-02 17:52:00,
2013-05-02 11:01:00,75.0,15.0,-100.00,SSE,147,8.0,15.0,10,0.00,,,0.00,665.000000,,2013-05-02 18:01:00,
2013-05-02 11:11:00,75.0,15.0,-100.00,SSE,147,8.0,15.0,10,0.00,,,0.00,665.000000,,2013-05-02 18:11:00,
2013-05-02 11:52:00,77.0,11.0,-100.00,SE,144,9.0,16.0,8,0.00,,,0.00,817.000000,,2013-05-02 18:52:00,
2013-05-02 12:01:00,77.0,11.0,-100.00,SE,144,9.0,16.0,8,0.00,,,0.00,817.000000,,2013-05-02 19:01:00,
2013-05-02 12:11:00,77.0,11.0,-100.00,SE,144,9.0,16.0,8,0.00,,,0.00,817.000000,,2013-05-02 19:11:00,
2013-05-02 12:21:00,77.0,11.0,-100.00,SE,144,9.0,16.0,8,0.00,,,0.00,817.000000,,2013-05-02 19:21:00,
2013-05-02 12:52:00,79.0,18.0,-100.00,SE,141,9.0,16.0,10,0.00,,,0.00,918.000000,,2013-05-02 19:52:00,
2013-05-02 13:02:00,79.0,18.0,-100.00,SE,141,9.0,16.0,10,0.00,,,0.00,918.000000,,2013-05-02 20:02:00,
2013-05-02 13:11:00,79.0,18.0,-100.00,SE,141,9.0,16.0,10,0.00,,,0.00,918.000000,,2013-05-02 20:11:00,
2013-05-02 13:21:00,79.0,18.0,-100.00,SE,141,9.0,16.0,10,0.00,,,0.00,918.000000,,2013-05-02 20:21:00,
2013-05-02 13:32:00,79.0,18.0,-100.00,SE,141,9.0,16.0,10,0.00,,,0.00,918.000000,,2013-05-02 20:32:00,
2013-05-02 13:33:00,81.0,14.0,-100.00,SE,139,5.0,16.0,8,0.00,,,0.00,961.000000,,2013-05-02 20:33:00,
2013-05-02 13:52:00,81.0,14.0,-100.00,SE,139,5.0,16.0,8,0.00,,,0.00,961.000000,,2013-05-02 20:52:00,
2013-05-02 14:01:00,81.0,14.0,-100.00,SE,139,5.0,16.0,8,0.00,,,0.00,961.000000,,2013-05-02 21:01:00,
2013-05-02 14:53:00,85.0,14.0,-100.00,SSW,207,0.0,14.0,7,0.00,,,0.00,947.000000,,2013-05-02 21:53:00,
2013-05-02 15:02:00,85.0,14.0,-100.00,SSW,207,0.0,14.0,7,0.00,,,0.00,947.000000,,2013-05-02 22:02:00,
2013-05-02 15:12:00,85.0,14.0,-100.00,SSW,207,0.0,14.0,7,0.00,,,0.00,947.000000,,2013-05-02 22:12:00,
2013-05-02 15:22:00,85.0,14.0,-100.00,SSW,207,0.0,14.0,7,0.00,,,0.00,947.000000,,2013-05-02 22:22:00,
2013-05-02 15:32:00,85.0,14.0,-100.00,SSW,207,0.0,14.0,7,0.00,,,0.00,947.000000,,2013-05-02 22:32:00,
2013-05-02 15:52:00,85.0,20.0,-100.00,SSE,147,5.0,14.0,9,0.00,,,0.00,874.000000,,2013-05-02 22:52:00,
2013-05-02 16:02:00,85.0,20.0,-100.00,SSE,147,5.0,14.0,9,0.00,,,0.00,874.000000,,2013-05-02 23:02:00,
2013-05-02 16:11:00,85.0,20.0,-100.00,SSE,147,5.0,14.0,9,0.00,,,0.00,874.000000,,2013-05-02 23:11:00,
2013-05-02 16:22:00,85.0,20.0,-100.00,SSE,147,5.0,14.0,9,0.00,,,0.00,874.000000,,2013-05-02 23:22:00,
2013-05-02 16:52:00,86.0,21.0,-100.00,SE,128,1.0,10.0,9,0.00,,,0.00,745.000000,,2013-05-02 23:52:00,
2013-05-02 17:01:00,86.0,21.0,-100.00,SE,128,1.0,10.0,9,0.00,,,0.00,745.000000,,2013-05-03 00:01:00,
2013-05-02 17:52:00,81.0,26.0,-100.00,WSW,256,15.0,22.0,13,0.00,,,0.00,575.000000,,2013-05-03 00:52:00,
2013-05-02 18:01:00,81.0,26.0,-100.00,WSW,256,15.0,22.0,13,0.00,,,0.00,575.000000,,2013-05-03 01:01:00,
2013-05-02 18:11:00,81.0,26.0,-100.00,WSW,256,15.0,22.0,13,0.00,,,0.00,575.000000,,2013-05-03 01:11:00,
2013-05-02 18:21:00,81.0,26.0,-100.00,WSW,256,15.0,22.0,13,0.00,,,0.00,575.000000,,2013-05-03 01:21:00,
2013-05-02 18:31:00,81.0,26.0,-100.00,WSW,256,15.0,22.0,13,0.00,,,0.00,575.000000,,2013-05-03 01:31:00,
2013-05-02 18:52:00,77.0,11.0,-100.00,West,262,16.0,28.0,8,0.00,,,0.00,380.000000,,2013-05-03 01:52:00,
2013-05-02 19:01:00,77.0,11.0,-100.00,West,262,16.0,28.0,8,0.00,,,0.00,380.000000,,2013-05-03 02:01:00,
2013-05-02 19:31:00,77.0,11.0,-100.00,West,262,16.0,28.0,8,0.00,,,0.00,380.000000,,2013-05-03 02:31:00,
2013-05-02 19:52:00,74.0,3.0,-100.00,WSW,257,18.0,33.0,6,0.00,,,0.00,172.000000,,2013-05-03 02:52:00,
2013-05-02 20:01:00,74.0,3.0,-100.00,WSW,257,18.0,33.0,6,0.00,,,0.00,172.000000,,2013-05-03 03:01:00,
2013-05-02 20:53:00,71.0,4.0,-100.00,SSE,164,5.0,31.0,7,0.00,,,0.00,15.000000,,2013-05-03 03:53:00,
2013-05-02 21:02:00,71.0,4.0,-100.00,SSE,164,5.0,31.0,7,0.00,,,0.00,15.000000,,2013-05-03 04:02:00,
2013-05-02 21:53:00,74.0,6.0,-100.00,North,357,8.0,17.0,7,0.00,,,0.00,1.000000,,2013-05-03 04:53:00,
2013-05-02 22:02:00,74.0,6.0,-100.00,North,357,8.0,17.0,7,0.00,,,0.00,1.000000,,2013-05-03 05:02:00,
2013-05-02 22:32:00,74.0,6.0,-100.00,North,357,8.0,17.0,7,0.00,,,0.00,1.000000,,2013-05-03 05:32:00,
2013-05-02 22:52:00,73.0,8.0,-100.00,WSW,239,0.0,9.0,8,0.00,,,0.00,1.000000,,2013-05-03 05:52:00,
2013-05-02 23:01:00,73.0,8.0,-100.00,WSW,239,0.0,9.0,8,0.00,,,0.00,1.000000,,2013-05-03 06:01:00,
2013-05-02 23:11:00,73.0,8.0,-100.00,WSW,239,0.0,9.0,8,0.00,,,0.00,1.000000,,2013-05-03 06:11:00,
2013-05-02 23:21:00,73.0,8.0,-100.00,WSW,239,0.0,9.0,8,0.00,,,0.00,1.000000,,2013-05-03 06:21:00,
2013-05-02 23:31:00,73.0,8.0,-100.00,WSW,239,0.0,9.0,8,0.00,,,0.00,1.000000,,2013-05-03 06:31:00,
2013-05-02 23:52:00,76.0,7.0,-100.00,North,350,0.0,0.0,7,0.00,,,0.00,1.000000,,2013-05-03 06:52:00,